Time,TemperatureF,DewpointF,PressureIn,WindDirection,WindDirectionDegrees,WindSpeedMPH,WindSpeedGustMPH,Humidity,HourlyPrecipIn,Conditions,Clouds,dailyrainin,SoftwareType,DateUTC
2013-04-03 00:05:00,48.8,43.9,30.17,WNW,287,1.0,1.0,83,0.00,,,0.00,Wunderground v.1.15,2013-04-03 07:05:00,
2013-04-03 00:15:00,48.7,44.1,30.16,NNW,343,0.0,0.0,84,0.00,,,0.00,Wunderground v.1.15,2013-04-03 07:15:00,
2013-04-03 00:25:00,48.6,44.0,30.16,North,351,0.0,0.0,84,0.00,,,0.00,Wunderground v.1.15,2013-04-03 07:25:00,
2013-04-03 00:35:00,48.3,44.0,30.16,NW,305,0.0,1.0,85,0.00,,,0.00,Wunderground v.1.15,2013-04-03 07:35:00,
2013-04-03 00:45:00,47.8,44.1,30.16,NW,306,1.0,1.0,87,0.00,,,0.00,Wunderground v.1.15,2013-04-03 07:45:00,
2013-04-03 00:55:00,47.5,44.1,30.16,WNW,302,0.0,1.0,88,0.00,,,0.00,Wunderground v.1.15,2013-04-03 07:55:00,
2013-04-03 01:05:00,47.5,44.1,30.16,NW,316,0.0,0.0,88,0.00,,,0.00,Wunderground v.1.15,2013-04-03 08:05:00,
2013-04-03 01:15:00,47.4,44.0,30.16,North,358,0.0,0.0,88,0.00,,,0.00,Wunderground v.1.15,2013-04-03 08:15:00,
2013-04-03 01:20:00,47.3,43.9,30.16,North,7,0.0,0.0,88,0.00,,,0.00,Wunderground v.1.15,2013-04-03 08:20:00,
2013-04-03 01:25:00,47.2,43.8,30.16,North,6,0.0,0.0,88,0.00,,,0.00,Wunderground v.1.15,2013-04-03 08:25:00,
2013-04-03 01:35:00,47.0,43.9,30.17,North,7,0.0,4.0,89,0.00,,,0.00,Wunderground v.1.15,2013-04-03 08:35:00,
2013-04-03 01:45:00,47.0,44.2,30.17,North,7,0.0,4.0,90,0.00,,,0.00,Wunderground v.1.15,2013-04-03 08:45:00,
2013-04-03 01:55:00,47.1,44.3,30.17,NW,304,0.0,4.0,90,0.00,,,0.00,Wunderground v.1.15,2013-04-03 08:55:00,
2013-04-03 02:10:00,47.2,44.1,30.17,NW,326,0.0,0.0,89,0.00,,,0.00,Wunderground v.1.15,2013-04-03 09:10:00,
2013-04-03 02:15:00,47.3,44.2,30.17,NW,326,0.0,0.0,89,0.00,,,0.00,Wunderground v.1.15,2013-04-03 09:15:00,
2013-04-03 02:25:00,47.4,44.3,30.17,NW,326,0.0,0.0,89,0.00,,,0.00,Wunderground v.1.15,2013-04-03 09:25:00,
2013-04-03 02:35:00,47.4,44.3,30.16,North,354,0.0,3.0,89,0.00,,,0.00,Wunderground v.1.15,2013-04-03 09:35:00,
2013-04-03 02:45:00,47.3,44.2,30.16,North,358,0.0,3.0,89,0.00,,,0.00,Wunderground v.1.15,2013-04-03 09:45:00,
2013-04-03 02:55:00,47.2,44.1,30.16,NNW,346,0.0,3.0,89,0.00,,,0.00,Wunderground v.1.15,2013-04-03 09:55:00,
2013-04-03 03:05:00,47.1,44.3,30.16,NW,308,0.0,0.0,90,0.00,,,0.00,Wunderground v.1.15,2013-04-03 10:05:00,
2013-04-03 03:15:00,47.0,44.2,30.16,NW,308,0.0,0.0,90,0.00,,,0.00,Wunderground v.1.15,2013-04-03 10:15:00,
2013-04-03 03:25:00,47.0,44.2,30.16,NW,308,0.0,0.0,90,0.00,,,0.00,Wunderground v.1.15,2013-04-03 10:25:00,
2013-04-03 03:35:00,47.0,44.2,30.16,WNW,303,0.0,1.0,90,0.00,,,0.00,Wunderground v.1.15,2013-04-03 10:35:00,
2013-04-03 03:45:00,47.0,44.2,30.16,WNW,300,0.0,1.0,90,0.00,,,0.00,Wunderground v.1.15,2013-04-03 10:45:00,
2013-04-03 03:55:00,47.0,44.2,30.16,WNW,300,0.0,1.0,90,0.00,,,0.00,Wunderground v.1.15,2013-04-03 10:55:00,
2013-04-03 04:05:00,47.0,44.2,30.16,NW,309,0.0,0.0,90,0.00,,,0.00,Wunderground v.1.15,2013-04-03 11:05:00,
2013-04-03 04:15:00,47.0,44.2,30.16,NW,309,0.0,0.0,90,0.00,,,0.00,Wunderground v.1.15,2013-04-03 11:15:00,
2013-04-03 04:25:00,46.9,44.1,30.16,NW,309,0.0,0.0,90,0.00,,,0.00,Wunderground v.1.15,2013-04-03 11:25:00,
2013-04-03 04:35:00,46.8,44.3,30.16,NW,309,0.0,1.0,91,0.00,,,0.00,Wunderground v.1.15,2013-04-03 11:35:00,
2013-04-03 04:45:00,46.7,44.2,30.16,NW,317,0.0,1.0,91,0.00,,,0.00,Wunderground v.1.15,2013-04-03 11:45:00,
2013-04-03 04:55:00,46.6,44.1,30.16,NW,312,0.0,2.0,91,0.00,,,0.00,Wunderground v.1.15,2013-04-03 11:55:00,
2013-04-03 05:00:00,46.6,44.1,30.16,NW,316,0.0,0.0,91,0.00,,,0.00,Wunderground v.1.15,2013-04-03 12:00:00,
2013-04-03 05:05:00,46.5,44.3,30.15,NNW,344,0.0,0.0,92,0.00,,,0.00,Wunderground v.1.15,2013-04-03 12:05:00,
2013-04-03 05:15:00,46.4,44.2,30.16,North,353,0.0,0.0,92,0.00,,,0.00,Wunderground v.1.15,2013-04-03 12:15:00,
2013-04-03 05:25:00,46.3,44.1,30.16,NNW,344,0.0,0.0,92,0.00,,,0.00,Wunderground v.1.15,2013-04-03 12:25:00,
2013-04-03 05:35:00,46.3,44.4,30.16,NNW,344,0.0,0.0,93,0.00,,,0.00,Wunderground v.1.15,2013-04-03 12:35:00,
2013-04-03 05:40:00,46.3,44.4,30.16,NNW,344,0.0,0.0,93,0.00,,,0.00,Wunderground v.1.15,2013-04-03 12:40:00,
2013-04-03 05:45:00,46.3,44.4,30.16,NNW,344,0.0,0.0,93,0.00,,,0.00,Wunderground v.1.15,2013-04-03 12:45:00,
2013-04-03 05:55:00,46.4,44.5,30.16,NNW,344,0.0,0.0,93,0.00,,,0.00,Wunderground v.1.15,2013-04-03 12:55:00,
2013-04-03 06:00:00,46.5,44.6,30.16,NNW,346,0.0,0.0,93,0.00,,,0.00,Wunderground v.1.15,2013-04-03 13:00:00,
2013-04-03 06:10:00,46.6,44.7,30.15,North,1,0.0,0.0,93,0.00,,,0.00,Wunderground v.1.15,2013-04-03 13:10:00,
2013-04-03 06:15:00,46.6,44.7,30.15,North,358,0.0,0.0,93,0.00,,,0.00,Wunderground v.1.15,2013-04-03 13:15:00,
2013-04-03 06:25:00,46.7,44.8,30.15,NNW,345,0.0,0.0,93,0.00,,,0.00,Wunderground v.1.15,2013-04-03 13:25:00,
2013-04-03 06:35:00,46.7,44.8,30.14,NW,312,0.0,1.0,93,0.00,,,0.00,Wunderground v.1.15,2013-04-03 13:35:00,
2013-04-03 06:45:00,46.7,44.8,30.15,NW,308,0.0,1.0,93,0.00,,,0.00,Wunderground v.1.15,2013-04-03 13:45:00,
2013-04-03 06:50:00,46.7,44.8,30.15,NW,308,0.0,1.0,93,0.00,,,0.00,Wunderground v.1.15,2013-04-03 13:50:00,
2013-04-03 06:55:00,46.8,44.9,30.15,NW,308,0.0,1.0,93,0.00,,,0.00,Wunderground v.1.15,2013-04-03 13:55:00,
2013-04-03 07:05:00,46.9,45.0,30.15,NW,308,0.0,0.0,93,0.00,,,0.00,Wunderground v.1.15,2013-04-03 14:05:00,
2013-04-03 07:15:00,47.0,44.8,30.15,NW,308,0.0,0.0,92,0.00,,,0.00,Wunderground v.1.15,2013-04-03 14:15:00,
2013-04-03 07:25:00,47.2,45.0,30.15,NW,308,0.0,0.0,92,0.00,,,0.00,Wunderground v.1.15,2013-04-03 14:25:00,
2013-04-03 07:35:00,47.4,45.2,30.15,NW,308,0.0,2.0,92,0.00,,,0.00,Wunderground v.1.15,2013-04-03 14:35:00,
2013-04-03 07:45:00,47.6,45.4,30.15,NW,308,0.0,2.0,92,0.00,,,0.00,Wunderground v.1.15,2013-04-03 14:45:00,
2013-04-03 07:55:00,47.8,45.3,30.15,NNW,347,0.0,2.0,91,0.00,,,0.00,Wunderground v.1.15,2013-04-03 14:55:00,
2013-04-03 08:05:00,48.2,45.7,30.14,North,360,0.0,0.0,91,0.00,,,0.00,Wunderground v.1.15,2013-04-03 15:05:00,
2013-04-03 08:15:00,48.7,45.9,30.13,NNE,22,0.0,0.0,90,0.00,,,0.00,Wunderground v.1.15,2013-04-03 15:15:00,
2013-04-03 08:25:00,49.5,46.4,30.13,North,9,0.0,0.0,89,0.00,,,0.00,Wunderground v.1.15,2013-04-03 15:25:00,
2013-04-03 08:35:00,50.0,46.3,30.14,NNE,20,0.0,1.0,87,0.00,,,0.00,Wunderground v.1.15,2013-04-03 15:35:00,
2013-04-03 08:45:00,50.5,46.8,30.14,ENE,72,0.0,1.0,87,0.00,,,0.00,Wunderground v.1.15,2013-04-03 15:45:00,
2013-04-03 08:55:00,51.0,46.6,30.14,WNW,303,0.0,1.0,85,0.00,,,0.00,Wunderground v.1.15,2013-04-03 15:55:00,
2013-04-03 09:05:00,51.4,46.7,30.13,NW,309,0.0,0.0,84,0.00,,,0.00,Wunderground v.1.15,2013-04-03 16:05:00,
2013-04-03 09:15:00,51.5,46.5,30.13,North,349,0.0,0.0,83,0.00,,,0.00,Wunderground v.1.15,2013-04-03 16:15:00,
2013-04-03 09:25:00,51.8,46.5,30.13,NNW,340,0.0,0.0,82,0.00,,,0.00,Wunderground v.1.15,2013-04-03 16:25:00,
2013-04-03 09:35:00,52.2,46.9,30.12,North,351,0.0,3.0,82,0.00,,,0.00,Wunderground v.1.15,2013-04-03 16:35:00,
2013-04-03 09:40:00,52.5,46.8,30.12,ESE,104,0.0,3.0,81,0.00,,,0.00,Wunderground v.1.15,2013-04-03 16:40:00,
2013-04-03 09:45:00,52.8,47.1,30.12,East,83,0.0,3.0,81,0.00,,,0.00,Wunderground v.1.15,2013-04-03 16:45:00,
2013-04-03 09:55:00,53.1,47.1,30.12,NNE,31,0.0,3.0,80,0.00,,,0.00,Wunderground v.1.15,2013-04-03 16:55:00,
2013-04-03 10:05:00,53.4,47.0,30.12,NNE,31,0.0,0.0,79,0.00,,,0.00,Wunderground v.1.15,2013-04-03 17:05:00,
2013-04-03 10:10:00,53.4,47.0,30.12,NNE,31,0.0,0.0,79,0.00,,,0.00,Wunderground v.1.15,2013-04-03 17:10:00,
2013-04-03 10:15:00,53.6,46.9,30.12,NNE,22,0.0,0.0,78,0.00,,,0.00,Wunderground v.1.15,2013-04-03 17:15:00,
2013-04-03 10:25:00,53.6,47.2,30.12,NW,306,0.0,0.0,79,0.00,,,0.00,Wunderground v.1.15,2013-04-03 17:25:00,
2013-04-03 10:35:00,53.5,47.1,30.12,NNE,18,0.0,3.0,79,0.00,,,0.00,Wunderground v.1.15,2013-04-03 17:35:00,
2013-04-03 10:45:00,54.0,47.6,30.11,NW,306,0.0,3.0,79,0.00,,,0.00,Wunderground v.1.15,2013-04-03 17:45:00,
2013-04-03 10:55:00,55.1,47.7,30.11,NW,308,0.0,3.0,76,0.00,,,0.00,Wunderground v.1.15,2013-04-03 17:55:00,
2013-04-03 11:00:00,55.7,47.9,30.11,NW,306,1.0,1.0,75,0.00,,,0.00,Wunderground v.1.15,2013-04-03 18:00:00,
2013-04-03 11:05:00,56.2,48.0,30.11,North,353,1.0,1.0,74,0.00,,,0.00,Wunderground v.1.15,2013-04-03 18:05:00,
2013-04-03 11:15:00,56.6,47.7,30.12,NW,311,1.0,1.0,72,0.00,,,0.00,Wunderground v.1.15,2013-04-03 18:15:00,
2013-04-03 11:20:00,56.7,47.8,30.12,North,9,1.0,1.0,72,0.00,,,0.00,Wunderground v.1.15,2013-04-03 18:20:00,
2013-04-03 11:25:00,56.8,47.9,30.12,North,352,1.0,1.0,72,0.00,,,0.00,Wunderground v.1.15,2013-04-03 18:25:00,
2013-04-03 11:35:00,56.7,47.4,30.11,NW,305,1.0,3.0,71,0.00,,,0.00,Wunderground v.1.15,2013-04-03 18:35:00,
2013-04-03 11:40:00,56.7,47.0,30.12,WNW,299,1.0,1.0,70,0.00,,,0.00,Wunderground v.1.15,2013-04-03 18:40:00,
2013-04-03 11:45:00,57.0,47.3,30.12,NNW,335,1.0,3.0,70,0.00,,,0.00,Wunderground v.1.15,2013-04-03 18:45:00,
2013-04-03 11:55:00,57.5,47.0,30.11,WNW,301,1.0,3.0,68,0.00,,,0.00,Wunderground v.1.15,2013-04-03 18:55:00,
2013-04-03 12:05:00,58.4,47.1,30.11,NW,322,1.0,1.0,66,0.00,,,0.00,Wunderground v.1.15,2013-04-03 19:05:00,
2013-04-03 12:15:00,58.6,46.9,30.12,NW,326,1.0,1.0,65,0.00,,,0.00,Wunderground v.1.15,2013-04-03 19:15:00,
2013-04-03 12:25:00,58.6,46.9,30.11,NNE,12,1.0,2.0,65,0.00,,,0.00,Wunderground v.1.15,2013-04-03 19:25:00,
2013-04-03 12:35:00,57.9,46.6,30.11,NW,306,0.0,7.0,66,0.00,,,0.00,Wunderground v.1.15,2013-04-03 19:35:00,
2013-04-03 12:45:00,58.6,46.9,30.11,North,355,1.0,7.0,65,0.00,,,0.00,Wunderground v.1.15,2013-04-03 19:45:00,
2013-04-03 12:50:00,59.1,46.9,30.10,NW,322,1.0,7.0,64,0.00,,,0.00,Wunderground v.1.15,2013-04-03 19:50:00,
2013-04-03 12:55:00,59.3,46.7,30.10,NNW,345,1.0,7.0,63,0.00,,,0.00,Wunderground v.1.15,2013-04-03 19:55:00,
2013-04-03 13:05:00,60.1,47.5,30.10,East,83,0.0,0.0,63,0.00,,,0.00,Wunderground v.1.15,2013-04-03 20:05:00,
2013-04-03 13:15:00,60.1,46.6,30.10,ESE,104,0.0,0.0,61,0.00,,,0.00,Wunderground v.1.15,2013-04-03 20:15:00,
2013-04-03 13:25:00,60.1,46.6,30.10,North,349,0.0,1.0,61,0.00,,,0.00,Wunderground v.1.15,2013-04-03 20:25:00,
2013-04-03 13:35:00,59.8,45.9,30.10,NW,314,1.0,6.0,60,0.00,,,0.00,Wunderground v.1.15,2013-04-03 20:35:00,
2013-04-03 13:45:00,60.4,46.0,30.10,SSW,193,0.0,6.0,59,0.00,,,0.00,Wunderground v.1.15,2013-04-03 20:45:00,
2013-04-03 13:55:00,61.3,45.9,30.10,NW,314,0.0,6.0,57,0.00,,,0.00,Wunderground v.1.15,2013-04-03 20:55:00,
2013-04-03 14:05:00,62.1,46.2,30.10,SSE,162,0.0,0.0,56,0.00,,,0.00,Wunderground v.1.15,2013-04-03 21:05:00,
2013-04-03 14:15:00,62.5,45.6,30.09,SW,218,0.0,2.0,54,0.00,,,0.00,Wunderground v.1.15,2013-04-03 21:15:00,
2013-04-03 14:25:00,62.7,45.3,30.09,NW,312,0.0,0.0,53,0.00,,,0.00,Wunderground v.1.15,2013-04-03 21:25:00,
2013-04-03 14:35:00,63.5,46.1,30.09,SSE,165,0.0,3.0,53,0.00,,,0.00,Wunderground v.1.15,2013-04-03 21:35:00,
2013-04-03 14:45:00,63.8,45.8,30.08,NNW,337,0.0,3.0,52,0.00,,,0.00,Wunderground v.1.15,2013-04-03 21:45:00,
2013-04-03 14:55:00,64.0,46.0,30.08,SSE,151,0.0,3.0,52,0.00,,,0.00,Wunderground v.1.15,2013-04-03 21:55:00,
2013-04-03 15:05:00,64.5,44.4,30.08,SSE,157,0.0,0.0,48,0.00,,,0.00,Wunderground v.1.15,2013-04-03 22:05:00,
2013-04-03 15:15:00,63.8,43.7,30.07,NW,304,0.0,0.0,48,0.00,,,0.00,Wunderground v.1.15,2013-04-03 22:15:00,
2013-04-03 15:25:00,63.6,43.5,30.07,South,190,0.0,0.0,48,0.00,,,0.00,Wunderground v.1.15,2013-04-03 22:25:00,
2013-04-03 15:35:00,63.5,44.0,30.06,SSE,168,0.0,3.0,49,0.00,,,0.00,Wunderground v.1.15,2013-04-03 22:35:00,
2013-04-03 15:45:00,64.1,43.4,30.05,South,170,0.0,3.0,47,0.00,,,0.00,Wunderground v.1.15,2013-04-03 22:45:00,
2013-04-03 15:55:00,64.3,43.1,30.05,South,175,0.0,3.0,46,0.00,,,0.00,Wunderground v.1.15,2013-04-03 22:55:00,
2013-04-03 16:05:00,64.5,43.8,30.05,South,175,0.0,0.0,47,0.00,,,0.00,Wunderground v.1.15,2013-04-03 23:05:00,
2013-04-03 16:15:00,64.4,44.3,30.05,South,175,0.0,0.0,48,0.00,,,0.00,Wunderground v.1.15,2013-04-03 23:15:00,
2013-04-03 16:25:00,64.3,44.2,30.05,NNW,341,0.0,0.0,48,0.00,,,0.00,Wunderground v.1.15,2013-04-03 23:25:00,
2013-04-03 16:35:00,63.8,44.3,30.05,SSE,167,0.0,2.0,49,0.00,,,0.00,Wunderground v.1.15,2013-04-03 23:35:00,
2013-04-03 16:45:00,63.6,44.1,30.05,SSW,201,0.0,2.0,49,0.00,,,0.00,Wunderground v.1.15,2013-04-03 23:45:00,
2013-04-03 16:55:00,63.7,44.7,30.04,SSW,202,0.0,2.0,50,0.00,,,0.00,Wunderground v.1.15,2013-04-03 23:55:00,
2013-04-03 17:05:00,63.6,44.6,30.04,South,180,0.0,0.0,50,0.00,,,0.00,Wunderground v.1.15,2013-04-04 00:05:00,
2013-04-03 17:15:00,63.4,44.4,30.03,NW,315,0.0,1.0,50,0.00,,,0.00,Wunderground v.1.15,2013-04-04 00:15:00,
2013-04-03 17:25:00,62.7,44.3,30.03,NW,312,0.0,0.0,51,0.00,,,0.00,Wunderground v.1.15,2013-04-04 00:25:00,
2013-04-03 17:35:00,62.5,44.6,30.03,North,3,0.0,1.0,52,0.00,,,0.00,Wunderground v.1.15,2013-04-04 00:35:00,
2013-04-03 17:40:00,62.4,45.0,30.02,NW,312,0.0,2.0,53,0.00,,,0.00,Wunderground v.1.15,2013-04-04 00:40:00,
2013-04-03 17:50:00,62.1,45.2,30.02,North,11,0.0,1.0,54,0.00,,,0.00,Wunderground v.1.15,2013-04-04 00:50:00,
2013-04-03 17:55:00,62.0,45.6,30.02,NNW,346,0.0,1.0,55,0.00,,,0.00,Wunderground v.1.15,2013-04-04 00:55:00,
2013-04-03 18:05:00,61.6,45.3,30.02,North,352,0.0,0.0,55,0.00,,,0.00,Wunderground v.1.15,2013-04-04 01:05:00,
2013-04-03 18:10:00,61.5,45.2,30.02,North,358,0.0,0.0,55,0.00,,,0.00,Wunderground v.1.15,2013-04-04 01:10:00,
2013-04-03 18:15:00,61.3,45.5,30.01,NW,309,0.0,0.0,56,0.00,,,0.00,Wunderground v.1.15,2013-04-04 01:15:00,
2013-04-03 18:25:00,61.0,45.7,30.00,North,351,0.0,0.0,57,0.00,,,0.00,Wunderground v.1.15,2013-04-04 01:25:00,
2013-04-03 18:35:00,60.7,45.8,30.00,NNE,14,0.0,3.0,58,0.00,,,0.00,Wunderground v.1.15,2013-04-04 01:35:00,
2013-04-03 18:45:00,60.4,45.5,30.00,NNW,346,0.0,3.0,58,0.00,,,0.00,Wunderground v.1.15,2013-04-04 01:45:00,
2013-04-03 18:55:00,60.2,45.8,30.00,NW,310,0.0,3.0,59,0.00,,,0.00,Wunderground v.1.15,2013-04-04 01:55:00,
2013-04-03 19:05:00,59.2,44.9,29.99,NNW,343,1.0,1.0,59,0.00,,,0.00,Wunderground v.1.15,2013-04-04 02:05:00,
2013-04-03 19:15:00,58.6,44.8,29.99,North,10,0.0,0.0,60,0.00,,,0.00,Wunderground v.1.15,2013-04-04 02:15:00,
2013-04-03 19:25:00,58.0,44.6,29.99,NNE,22,0.0,0.0,61,0.00,,,0.00,Wunderground v.1.15,2013-04-04 02:25:00,
2013-04-03 19:35:00,57.4,44.5,29.98,NNW,345,1.0,3.0,62,0.00,,,0.00,Wunderground v.1.15,2013-04-04 02:35:00,
2013-04-03 19:45:00,56.8,44.7,29.98,North,5,2.0,3.0,64,0.00,,,0.00,Wunderground v.1.15,2013-04-04 02:45:00,
2013-04-03 19:50:00,56.6,45.4,29.98,NNE,12,0.0,3.0,66,0.00,,,0.00,Wunderground v.1.15,2013-04-04 02:50:00,
2013-04-03 19:55:00,56.2,45.4,29.98,NW,310,0.0,3.0,67,0.00,,,0.00,Wunderground v.1.15,2013-04-04 02:55:00,
2013-04-03 20:05:00,55.5,45.1,29.98,NW,315,0.0,2.0,68,0.00,,,0.00,Wunderground v.1.15,2013-04-04 03:05:00,
2013-04-03 20:15:00,54.8,44.4,29.97,NW,324,3.0,3.0,68,0.00,,,0.00,Wunderground v.1.15,2013-04-04 03:15:00,
2013-04-03 20:20:00,54.7,44.7,29.97,NW,321,2.0,3.0,69,0.00,,,0.00,Wunderground v.1.15,2013-04-04 03:20:00,
2013-04-03 20:25:00,54.6,44.6,29.97,NW,314,3.0,4.0,69,0.00,,,0.00,Wunderground v.1.15,2013-04-04 03:25:00,
2013-04-03 20:35:00,54.5,44.9,29.97,NW,311,3.0,5.0,70,0.00,,,0.00,Wunderground v.1.15,2013-04-04 03:35:00,
2013-04-03 20:45:00,54.3,45.5,29.97,NNE,15,1.0,5.0,72,0.00,,,0.00,Wunderground v.1.15,2013-04-04 03:45:00,
2013-04-03 20:55:00,53.9,45.4,29.97,NNE,24,1.0,5.0,73,0.00,,,0.00,Wunderground v.1.15,2013-04-04 03:55:00,
2013-04-03 21:00:00,53.8,45.7,29.97,NNE,27,1.0,1.0,74,0.00,,,0.00,Wunderground v.1.15,2013-04-04 04:00:00,
2013-04-03 21:05:00,53.7,45.6,29.97,NNE,15,1.0,2.0,74,0.00,,,0.00,Wunderground v.1.15,2013-04-04 04:05:00,
2013-04-03 21:15:00,53.4,45.3,29.97,NW,312,1.0,1.0,74,0.00,,,0.00,Wunderground v.1.15,2013-04-04 04:15:00,
2013-04-03 21:20:00,53.4,45.7,29.97,North,6,1.0,1.0,75,0.00,,,0.00,Wunderground v.1.15,2013-04-04 04:20:00,
2013-04-03 21:25:00,53.3,45.6,29.97,NNE,31,1.0,1.0,75,0.00,,,0.00,Wunderground v.1.15,2013-04-04 04:25:00,
2013-04-03 21:30:00,53.2,45.5,29.97,NW,312,0.0,0.0,75,0.00,,,0.00,Wunderground v.1.15,2013-04-04 04:30:00,
2013-04-03 21:35:00,53.1,45.4,29.97,North,2,0.0,1.0,75,0.00,,,0.00,Wunderground v.1.15,2013-04-04 04:35:00,
2013-04-03 21:45:00,52.9,45.5,29.96,North,4,0.0,10.0,76,0.00,,,0.00,Wunderground v.1.15,2013-04-04 04:45:00,
2013-04-03 21:55:00,52.7,45.7,29.97,NW,305,0.0,10.0,77,0.00,,,0.00,Wunderground v.1.15,2013-04-04 04:55:00,
2013-04-03 22:05:00,52.4,45.4,29.96,NW,319,1.0,1.0,77,0.00,,,0.00,Wunderground v.1.15,2013-04-04 05:05:00,
2013-04-03 22:15:00,52.1,45.4,29.95,NNW,342,1.0,5.0,78,0.00,,,0.00,Wunderground v.1.15,2013-04-04 05:15:00,
2013-04-03 22:25:00,52.0,45.4,29.95,NNE,17,0.0,1.0,78,0.00,,,0.00,Wunderground v.1.15,2013-04-04 05:25:00,
2013-04-03 22:30:00,51.9,45.3,29.95,NW,306,0.0,4.0,78,0.00,,,0.00,Wunderground v.1.15,2013-04-04 05:30:00,
2013-04-03 22:35:00,51.9,45.3,29.95,NNE,13,0.0,9.0,78,0.00,,,0.00,Wunderground v.1.15,2013-04-04 05:35:00,
2013-04-03 22:45:00,51.9,45.3,29.95,North,6,0.0,9.0,78,0.00,,,0.00,Wunderground v.1.15,2013-04-04 05:45:00,
2013-04-03 22:55:00,51.8,45.2,29.95,NNE,14,0.0,9.0,78,0.00,,,0.00,Wunderground v.1.15,2013-04-04 05:55:00,
2013-04-03 23:05:00,51.8,45.2,29.94,North,6,0.0,0.0,78,0.00,,,0.00,Wunderground v.1.15,2013-04-04 06:05:00,
2013-04-03 23:15:00,51.7,45.1,29.94,North,351,0.0,1.0,78,0.00,,,0.00,Wunderground v.1.15,2013-04-04 06:15:00,
2013-04-03 23:25:00,51.6,45.0,29.93,North,8,0.0,2.0,78,0.00,,,0.00,Wunderground v.1.15,2013-04-04 06:25:00,
2013-04-03 23:35:00,51.4,45.1,29.93,North,359,0.0,8.0,79,0.00,,,0.00,Wunderground v.1.15,2013-04-04 06:35:00,
2013-04-03 23:45:00,51.2,44.9,29.93,North,358,0.0,8.0,79,0.00,,,0.00,Wunderground v.1.15,2013-04-04 06:45:00,
2013-04-03 23:50:00,51.2,44.9,29.93,NE,39,0.0,8.0,79,0.00,,,0.00,Wunderground v.1.15,2013-04-04 06:50:00,